Tillbaka till svenska Fidonet
English   Information   Debug  
FILM   0/18
FNEWS_PUBLISH   4569
FN_SYSOP   41808
FN_SYSOP_OLD1   71952
FTP_FIDO   0/2
FTSC_PUBLIC   0/13887
FUNNY   0/4886
GENEALOGY.EUR   0/71
GET_INFO   105
GOLDED   0/408
HAM   7766/16127
HOLYSMOKE   0/6791
HOT_SITES   0/1
HTMLEDIT   0/71
HUB203   466
HUB_100   264
HUB_400   39
HUMOR   0/29
IC   0/2851
INTERNET   0/424
INTERUSER   0/3
IP_CONNECT   719
JAMNNTPD   0/233
JAMTLAND   0/47
KATTY_KORNER   0/41
LAN   0/16
LINUX-USER   0/19
LINUXHELP   0/1155
LINUX   0/22169
LINUX_BBS   0/957
mail   18.68
mail_fore_ok   249
MENSA   0/341
MODERATOR   0/102
MONTE   0/992
MOSCOW_OKLAHOMA   0/1245
MUFFIN   0/783
MUSIC   0/321
N203_STAT   938
N203_SYSCHAT   313
NET203   321
NET204   69
NET_DEV   0/10
NORD.ADMIN   0/101
NORD.CHAT   0/2572
NORD.FIDONET   189
NORD.HARDWARE   0/28
NORD.KULTUR   0/114
NORD.PROG   0/32
NORD.SOFTWARE   0/88
NORD.TEKNIK   0/58
NORD   0/453
OCCULT_CHAT   0/93
OS2BBS   0/787
OS2DOSBBS   0/580
OS2HW   0/42
OS2INET   0/37
OS2LAN   0/134
OS2PROG   0/36
OS2REXX   0/113
OS2USER-L   207
OS2   0/4804
OSDEBATE   0/18996
PASCAL   0/490
PERL   0/457
PHP   0/45
POINTS   0/405
POLITICS   0/29554
POL_INC   0/14731
PSION   103
R20_ADMIN   1129
R20_AMATORRADIO   0/2
R20_BEST_OF_FIDONET   14
R20_CHAT   0/893
R20_DEPP   0/3
R20_DEV   399
R20_ECHO2   1489
R20_ECHOPRES   0/35
R20_ESTAT   0/719
R20_FIDONETPROG...
...RAM.MYPOINT
  0/2
R20_FIDONETPROGRAM   0/22
R20_FIDONET   0/248
R20_FILEFIND   0/24
R20_FILEFOUND   0/22
R20_HIFI   0/3
R20_INFO2   3379
R20_INTERNET   0/12940
R20_INTRESSE   0/60
R20_INTR_KOM   0/99
R20_KANDIDAT.CHAT   42
R20_KANDIDAT   28
R20_KOM_DEV   112
R20_KONTROLL   0/13360
R20_KORSET   0/18
R20_LOKALTRAFIK   0/24
R20_MODERATOR   0/1852
R20_NC   76
R20_NET200   245
R20_NETWORK.OTH...
...ERNETS
  0/13
R20_OPERATIVSYS...
...TEM.LINUX
  0/44
R20_PROGRAMVAROR   0/1
R20_REC2NEC   534
R20_SFOSM   0/341
R20_SF   0/108
R20_SPRAK.ENGLISH   0/1
R20_SQUISH   107
R20_TEST   2
R20_WORST_OF_FIDONET   20
RAR   0/9
RA_MULTI   106
RA_UTIL   0/162
REGCON.EUR   0/2066
REGCON   0/13
SCIENCE   0/1206
SF   0/239
SHAREWARE_SUPPORT   0/5146
SHAREWRE   0/14
SIMPSONS   0/169
STATS_OLD1   0/2539.065
STATS_OLD2   0/2530
STATS_OLD3   0/2395.095
STATS_OLD4   0/1692.25
SURVIVOR   0/495
SYSOPS_CORNER   0/3
SYSOP   0/84
TAGLINES   0/112
TEAMOS2   0/4530
TECH   0/2617
TEST.444   0/105
TRAPDOOR   0/19
TREK   0/755
TUB   0/290
UFO   0/40
UNIX   0/1316
USA_EURLINK   0/102
USR_MODEMS   0/1
VATICAN   0/2740
VIETNAM_VETS   0/14
VIRUS   0/378
VIRUS_INFO   0/201
VISUAL_BASIC   0/473
WHITEHOUSE   0/5187
WIN2000   0/101
WIN32   0/30
WIN95   0/4291
WIN95_OLD1   60074/70272
WINDOWS   0/1517
WWB_SYSOP   0/419
WWB_TECH   0/810
ZCC-PUBLIC   0/1
ZEC   4

 
4DOS   0/134
ABORTION   0/7
ALASKA_CHAT   0/506
ALLFIX_FILE   0/1313
ALLFIX_FILE_OLD1   0/7997
ALT_DOS   0/152
AMATEUR_RADIO   0/1039
AMIGASALE   0/14
AMIGA   0/331
AMIGA_INT   0/1
AMIGA_PROG   0/20
AMIGA_SYSOP   0/26
ANIME   0/15
ARGUS   0/924
ASCII_ART   0/340
ASIAN_LINK   0/651
ASTRONOMY   0/417
AUDIO   0/92
AUTOMOBILE_RACING   0/105
BABYLON5   0/17862
BAG   135
BATPOWER   0/361
BBBS.ENGLISH   0/382
BBSLAW   0/109
BBS_ADS   0/5290
BBS_INTERNET   0/507
BIBLE   0/3563
BINKD   0/1119
BINKLEY   0/215
BLUEWAVE   0/2173
CABLE_MODEMS   0/25
CBM   0/46
CDRECORD   0/66
CDROM   0/20
CLASSIC_COMPUTER   0/378
COMICS   0/15
CONSPRCY   0/899
COOKING   36206
COOKING_OLD1   0/24719
COOKING_OLD2   0/40862
COOKING_OLD3   0/37489
COOKING_OLD4   0/35496
COOKING_OLD5   9370
C_ECHO   0/189
C_PLUSPLUS   0/31
DIRTY_DOZEN   0/201
DOORGAMES   0/2114
DOS_INTERNET   0/196
duplikat   6002
ECHOLIST   0/18295
EC_SUPPORT   0/318
ELECTRONICS   0/359
ELEKTRONIK.GER   1534
ENET.LINGUISTIC   0/13
ENET.POLITICS   0/4
ENET.SOFT   0/11701
ENET.SYSOP   34076
ENET.TALKS   0/32
ENGLISH_TUTOR   0/2000
EVOLUTION   0/1335
FDECHO   0/217
FDN_ANNOUNCE   0/7068
FIDONEWS   24344
FIDONEWS_OLD1   0/49742
FIDONEWS_OLD2   0/35949
FIDONEWS_OLD3   0/30874
FIDONEWS_OLD4   0/37224
FIDO_SYSOP   12854
FIDO_UTIL   0/180
FILEFIND   0/209
FILEGATE   0/212
Möte HAM, 16127 texter
 lista första sista föregående nästa
Text 837, 749 rader
Skriven 2006-02-18 01:01:16 av Amsat List (1:323/120.0)
Ärende: 
========
SB KEPS @ AMSAT  $ORB06048.O
Orbital Elements  06048.OSCAR

HR AMSAT ORBITAL ELEMENTS FOR OSCAR SATELLITES
FROM WA5QGD FORT WORTH,TX February 17, 2006
Send SUBSCRIBE KEPS/UNSUBSCRIBE KEPS to majordomo@amsat.org only
BID: ORB06048.O
TO ALL RADIO AMATEURS BT

Satellite: AO-07
Catalog number: 07530
Epoch time:      06047.75868946
Element set:    0568
Inclination:      101.5881 deg
RA of node:       093.6200 deg
Eccentricity:    0.0012100
Arg of perigee:   120.2089 deg
Mean anomaly:     240.0183 deg
Mean motion:   12.53571946 rev/day
Decay rate:       -2.8e-07 rev/day^2
Epoch rev:           43029
Checksum:              282

Satellite: AO-10
Catalog number: 14129
Epoch time:      06047.83940966
Element set:     261
Inclination:      027.4681 deg
RA of node:       348.7808 deg
Eccentricity:    0.6025974
Arg of perigee:   262.1920 deg
Mean anomaly:     029.8988 deg
Mean motion:   02.05871812 rev/day
Decay rate:      -5.42e-06 rev/day^2
Epoch rev:           17057
Checksum:              330

Satellite: UO-11
Catalog number: 14781
Epoch time:      06047.86059653
Element set:    0996
Inclination:      098.2106 deg
RA of node:       055.5096 deg
Eccentricity:    0.0008299
Arg of perigee:   296.3683 deg
Mean anomaly:     063.6670 deg
Mean motion:   14.79382766 rev/day
Decay rate:       4.36e-06 rev/day^2
Epoch rev:           17797
Checksum:              362

Satellite: RS-10/11
Catalog number: 18129
Epoch time:      06048.50578036
Element set:     916
Inclination:      082.9217 deg
RA of node:       056.6857 deg
Eccentricity:    0.0013403
Arg of perigee:   066.9508 deg
Mean anomaly:     293.3072 deg
Mean motion:   13.72771238 rev/day
Decay rate:        5.0e-07 rev/day^2
Epoch rev:           93473
Checksum:              312

Satellite: RS-15
Catalog number: 23439
Epoch time:      06047.48398294
Element set:    0980
Inclination:      064.8174 deg
RA of node:       072.4445 deg
Eccentricity:    0.0168003
Arg of perigee:   274.5183 deg
Mean anomaly:     083.6567 deg
Mean motion:   11.27551859 rev/day
Decay rate:       -3.9e-07 rev/day^2
Epoch rev:           45893
Checksum:              344

Satellite: FO-29
Catalog number: 24278
Epoch time:      06048.43896456
Element set:     161
Inclination:      098.5157 deg
RA of node:       069.5060 deg
Eccentricity:    0.0349804
Arg of perigee:   260.4427 deg
Mean anomaly:     095.7019 deg
Mean motion:   13.52919507 rev/day
Decay rate:        2.0e-08 rev/day^2
Epoch rev:           46935
Checksum:              333

Satellite: SO-33
Catalog number: 25509
Epoch time:      06047.50985844
Element set:    0583
Inclination:      031.4289 deg
RA of node:       091.4941 deg
Eccentricity:    0.0355114
Arg of perigee:   141.6408 deg
Mean anomaly:     221.0034 deg
Mean motion:   14.28073929 rev/day
Decay rate:        1.3e-07 rev/day^2
Epoch rev:           38177
Checksum:              299

Satellite: AO-40
Catalog number: 26609
Epoch time:      06046.73730145
Element set:     678
Inclination:      007.3066 deg
RA of node:       255.2717 deg
Eccentricity:    0.7919230
Arg of perigee:   132.1393 deg
Mean anomaly:     328.4667 deg
Mean motion:   01.25583452 rev/day
Decay rate:      -2.04e-06 rev/day^2
Epoch rev:            2432
Checksum:              297

Satellite: VO-52
Catalog number: 28650
Epoch time:      06048.74455148
Element set:     255
Inclination:      097.8824 deg
RA of node:       123.8504 deg
Eccentricity:    0.0027946
Arg of perigee:   032.2717 deg
Mean anomaly:     328.0202 deg
Mean motion:   14.81050074 rev/day
Decay rate:       -7.3e-07 rev/day^2
Epoch rev:            4270
Checksum:              289

/EX
SB KEPS @ AMSAT  $ORB06048.D
Orbital Elements  06048.MICROS

HR AMSAT ORBITAL ELEMENTS FOR THE MICROSATS
FROM WA5QGD FORT WORTH,TX February 17, 2006
Send SUBSCRIBE KEPS/UNSUBSCRIBE KEPS to majordomo@amsat.org only
BID: ORB06048.D
TO ALL RADIO AMATEURS BT

Satellite: AO-16
Catalog number: 20439
Epoch time:      06047.59511005
Element set:    0677
Inclination:      098.1943 deg
RA of node:       064.2883 deg
Eccentricity:    0.0011075
Arg of perigee:   189.0373 deg
Mean anomaly:     171.0586 deg
Mean motion:   14.31711299 rev/day
Decay rate:        7.4e-07 rev/day^2
Epoch rev:           83906
Checksum:              312

Satellite: WO-18
Catalog number: 20441
Epoch time:      06047.51758714
Element set:    0878
Inclination:      098.1977 deg
RA of node:       068.7998 deg
Eccentricity:    0.0010758
Arg of perigee:   192.0528 deg
Mean anomaly:     168.0405 deg
Mean motion:   14.31781715 rev/day
Decay rate:        8.0e-08 rev/day^2
Epoch rev:           83911
Checksum:              338

Satellite: LO-19
Catalog number: 20442
Epoch time:      06048.48425972
Element set:     613
Inclination:      098.2018 deg
RA of node:       074.4871 deg
Eccentricity:    0.0011350
Arg of perigee:   187.3735 deg
Mean anomaly:     172.7288 deg
Mean motion:   14.31954974 rev/day
Decay rate:        2.3e-07 rev/day^2
Epoch rev:           83932
Checksum:              317

Satellite: UO-22
Catalog number: 21575
Epoch time:      06047.87247969
Element set:    0629
Inclination:      098.2805 deg
RA of node:       009.4592 deg
Eccentricity:    0.0008411
Arg of perigee:   072.6431 deg
Mean anomaly:     287.5682 deg
Mean motion:   14.39533671 rev/day
Decay rate:       -1.9e-07 rev/day^2
Epoch rev:           76570
Checksum:              335

Satellite: KO-23
Catalog number: 22077
Epoch time:      06048.34022370
Element set:     714
Inclination:      066.0880 deg
RA of node:       353.0384 deg
Eccentricity:    0.0006252
Arg of perigee:   196.7649 deg
Mean anomaly:     163.3164 deg
Mean motion:   12.86435318 rev/day
Decay rate:       -3.7e-07 rev/day^2
Epoch rev:           63512
Checksum:              289

